sat.trackr.live / text

‹ back to catalog

GEESAT-6 09

NORAD 65721 · 2025-214K

PAYLOAD ACTIVE UNKNOWN

§ Identity

Operator
Country
PRC
Launch date
2025-09-24
Launch site
YSLA
Launch vehicle
Mass (kg)
RCS (m²)

External: N2YO · Heavens-Above · Gunter

§ Orbital elements

Epoch: 2026-05-25T03:14:19.851072Z

Period
97.08 min
Inclination
49.9859°
Eccentricity
0.0008353
Mean motion
14.83280300 rev/d
Perigee alt
613.1 km
Apogee alt
624.8 km
Semi-major
6,997.1 km
B*
1.8488e-4
RAAN
55.1482°
Arg perigee
119.5875°
Mean anomaly
240.5897°
Rev number
3,608

§ Raw data

GEESAT-6 091 65721U 25214K   26145.13495198  .00001303  00000+0  18488-3 0  99912 65721  49.9859  55.1482 0008353 119.5875 240.5897 14.83280300 36088

JSON: /api/v1/satellites/65721 · /tle

For live sub-satellite position, see the globe view (requires WebGL).

§ Visibility from observer

Set your observer location to see the next 7 days of passes ≥ 10°. The values pass through the URL so the page stays shareable.

No JS? Fill the form by hand. The geolocation button needs JavaScript.